Goldsboro, NC

5:36 PM EDT on May 25, 2017 (GMT -0400)
Goldsboro-Wayne Municipal

Weather History for KGWW - June, 2014

Change the Weather History Date:

Monday, June 9, 2014

  Actual Average (KGSB) Record (KGSB)
Temperature  
Mean Temperature 78 °F -  
Max Temperature 89 °F 84 °F 101 °F (2008)
Min Temperature 67 °F 65 °F 53 °F (2002)
Cooling Degree Days 13    
Growing Degree Days 28 (Base 50)    
Moisture  
Dew Point 70 °F    
Average Humidity 80    
Maximum Humidity 98    
Minimum Humidity 54    
Precipitation  
Precipitation 0.07 in - - ()
Sea Level Pressure  
Sea Level Pressure 29.90 in    
Wind  
Wind Speed 4 mph (South)    
Max Wind Speed 10 mph    
Max Gust Speed 16 mph    
Visibility 10 miles    
Events Rain    
Averages and records for this station are not official NWS values.
T = Trace of Precipitation, MM = Missing Value Source: NWS Daily Summary

Daily Weather History Graph

Daily Weather History Graph

Search for Another Location

Airport or City:

Trip Planner

Search our weather history database for the weather conditions in past years. The results will help you decide how hot, cold, wet, or windy it might be!

Date:

Astronomy

Jun. 09, 2014 Rise Set
Actual Time 5:56 AM EDT 8:26 PM EDT
Civil Twilight 5:26 AM EDT 8:56 PM EDT
Nautical Twilight 4:49 AM EDT 9:32 PM EDT
Astronomical Twilight 4:09 AM EDT 10:13 PM EDT
Moon 4:51 PM EDT (6/9) 3:14 AM EDT (6/9)
Length of Visible Light 15h 29m
Length of Day
14h 30m
Waxing Gibbous, 85% of the Moon is Illuminated
Jun 9
Waxing Gibbous
Jun 13
Full
Jun 19
Last Quarter
Jun 27
New
Jul 5
First Quarter

Hourly Weather History & Observations

Time (EDT) Temp. Heat Index Dew Point Humidity Pressure Visibility Wind Dir Wind Speed Gust Speed Precip Events Conditions
12:15 AM 71.6 °F - 57.0 °F 60% 29.95 in 10.0 mi South 4.6 mph - N/A   Mostly Cloudy
12:35 AM 71.2 °F - 57.7 °F 62% 29.94 in 10.0 mi South 4.6 mph - N/A   Overcast
12:55 AM 71.1 °F - 58.5 °F 64% 29.94 in 10.0 mi SSE 3.5 mph - N/A   Overcast
1:15 AM 71.2 °F - 59.2 °F 66% 29.94 in 10.0 mi South 3.5 mph - N/A   Overcast
1:35 AM 71.4 °F - 59.5 °F 66% 29.93 in 10.0 mi Calm Calm - N/A   Overcast
1:55 AM 71.1 °F - 60.1 °F 68% 29.93 in 10.0 mi South 3.5 mph - N/A   Overcast
2:15 AM 70.9 °F - 59.9 °F 68% 29.93 in 10.0 mi SSE 4.6 mph - N/A   Overcast
2:35 AM 70.5 °F - 60.6 °F 71% 29.92 in 10.0 mi SE 3.5 mph - N/A Rain Light Rain
2:55 AM 68.9 °F - 62.8 °F 81% 29.92 in 10.0 mi SE 3.5 mph - N/A   Overcast
3:15 AM 69.1 °F - 62.4 °F 79% 29.92 in 10.0 mi Calm Calm - N/A   Overcast
3:35 AM 68.7 °F - 63.3 °F 83% 29.91 in 10.0 mi Calm Calm - N/A   Light Drizzle
3:55 AM 68.2 °F - 64.8 °F 89% 29.91 in 10.0 mi Calm Calm - N/A Rain Rain
4:15 AM 67.1 °F - 65.7 °F 95% 29.91 in 5.0 mi Calm Calm - 0.03 in Rain Heavy Rain
4:35 AM 67.1 °F - 65.8 °F 96% 29.90 in 10.0 mi Calm Calm - 0.05 in   Overcast
4:55 AM 67.3 °F - 66.7 °F 98% 29.90 in 10.0 mi Calm Calm - 0.05 in   Overcast
5:15 AM 67.6 °F - 67.1 °F 98% 29.90 in 10.0 mi Calm Calm - N/A   Overcast
5:35 AM 68.0 °F - 67.1 °F 97% 29.89 in 10.0 mi Calm Calm - N/A   Overcast
5:55 AM 68.4 °F - 67.5 °F 97% 29.90 in 10.0 mi Calm Calm - N/A   Overcast
6:15 AM 68.2 °F - 67.6 °F 98% 29.90 in 10.0 mi Calm Calm - N/A   Overcast
6:35 AM 68.5 °F - 67.8 °F 98% 29.90 in 10.0 mi SE 3.5 mph - N/A   Overcast
6:55 AM 69.3 °F - 68.0 °F 96% 29.90 in 10.0 mi SSE 3.5 mph - N/A   Overcast
7:15 AM 70.2 °F - 68.2 °F 93% 29.91 in 10.0 mi SSE 4.6 mph - N/A   Scattered Clouds
7:35 AM 71.1 °F - 68.7 °F 92% 29.91 in 10.0 mi SSE 4.6 mph - 0.01 in   Scattered Clouds
7:55 AM 71.8 °F - 69.6 °F 93% 29.91 in 10.0 mi SSE 4.6 mph - 0.01 in   Scattered Clouds
8:15 AM 72.7 °F - 70.0 °F 91% 29.92 in 10.0 mi South 5.8 mph - N/A   Mostly Cloudy
8:35 AM 73.4 °F - 70.0 °F 89% 29.92 in 10.0 mi South 5.8 mph - N/A   Mostly Cloudy
8:55 AM 74.3 °F - 70.7 °F 88% 29.93 in 10.0 mi South 5.8 mph - N/A   Overcast
9:15 AM 75.0 °F - 71.2 °F 88% 29.92 in 10.0 mi South 3.5 mph - N/A   Overcast
9:35 AM 76.3 °F - 71.4 °F 85% 29.93 in 10.0 mi South 5.8 mph - N/A   Overcast
9:55 AM 77.9 °F - 72.0 °F 82% 29.93 in 10.0 mi South 5.8 mph - N/A   Overcast
10:15 AM 78.8 °F - 72.5 °F 81% 29.93 in 10.0 mi SSW 6.9 mph - N/A   Overcast
10:35 AM 78.8 °F - 73.0 °F 82% 29.93 in 10.0 mi SW 8.1 mph - N/A   Overcast
10:55 AM 75.4 °F - 73.9 °F 95% 29.93 in 7.0 mi Calm Calm - 0.01 in Rain Light Rain
11:15 AM 77.5 °F - 74.8 °F 91% 29.93 in 10.0 mi Calm Calm - N/A   Overcast
11:35 AM 80.1 °F 84.8 °F 74.7 °F 83% 29.92 in 10.0 mi SSW 3.5 mph - N/A   Mostly Cloudy
11:55 AM 79.9 °F - 74.8 °F 85% 29.92 in 10.0 mi SW 5.8 mph - N/A   Mostly Cloudy
12:15 PM 83.1 °F 89.8 °F 74.1 °F 74% 29.91 in 10.0 mi SW 9.2 mph - N/A   Mostly Cloudy
12:35 PM 82.4 °F 88.4 °F 73.8 °F 75% 29.91 in 10.0 mi SW 3.5 mph - N/A   Mostly Cloudy
12:55 PM 85.6 °F 93.0 °F 73.8 °F 67% 29.90 in 10.0 mi SW 8.1 mph - N/A   Scattered Clouds
1:15 PM 84.0 °F 90.5 °F 73.2 °F 70% 29.90 in 10.0 mi SW 8.1 mph - N/A   Mostly Cloudy
1:35 PM 87.3 °F 94.5 °F 72.7 °F 62% 29.90 in 10.0 mi South 6.9 mph - N/A   Scattered Clouds
1:55 PM 88.2 °F 95.0 °F 72.3 °F 59% 29.89 in 10.0 mi SSW 10.4 mph 16.1 mph N/A   Scattered Clouds
2:15 PM 88.9 °F 94.2 °F 70.2 °F 54% 29.88 in 10.0 mi SW 8.1 mph - N/A   Scattered Clouds
2:35 PM 89.6 °F 95.7 °F 70.7 °F 54% 29.88 in 10.0 mi SSW 10.4 mph 16.1 mph N/A   Scattered Clouds
3:35 PM 86.7 °F 93.7 °F 72.7 °F 63% 29.87 in 10.0 mi South 3.5 mph - N/A   Mostly Cloudy
3:55 PM 86.9 °F 94.5 °F 73.2 °F 64% 29.87 in 10.0 mi SSE 6.9 mph - N/A   Overcast
4:15 PM 86.2 °F 93.8 °F 73.4 °F 66% 29.87 in 10.0 mi SSE 5.8 mph - N/A   Overcast
4:35 PM 85.8 °F 92.6 °F 73.0 °F 65% 29.87 in 10.0 mi SSE 8.1 mph - N/A   Overcast
4:55 PM 88.3 °F 95.9 °F 72.9 °F 60% 29.87 in 10.0 mi South 9.2 mph 16.1 mph N/A   Mostly Cloudy
5:15 PM 88.5 °F 96.3 °F 73.2 °F 60% 29.87 in 10.0 mi SSE 8.1 mph - N/A   Scattered Clouds
5:35 PM 87.1 °F 94.5 °F 73.2 °F 63% 29.86 in 10.0 mi SE 8.1 mph - N/A   Mostly Cloudy
5:55 PM 84.7 °F 91.4 °F 73.2 °F 68% 29.86 in 10.0 mi SE 6.9 mph - N/A   Mostly Cloudy
6:15 PM 85.5 °F 92.6 °F 73.4 °F 67% 29.86 in 10.0 mi SSE 9.2 mph - N/A   Overcast
6:35 PM 85.3 °F 91.8 °F 72.7 °F 66% 29.86 in 10.0 mi SSE 9.2 mph 16.1 mph N/A   Scattered Clouds
6:55 PM 84.2 °F 90.6 °F 72.9 °F 69% 29.87 in 10.0 mi SSE 8.1 mph - N/A   Clear
7:15 PM 82.9 °F 88.5 °F 72.7 °F 71% 29.87 in 10.0 mi South 8.1 mph - N/A   Clear
7:35 PM 82.4 °F 88.2 °F 73.2 °F 74% 29.87 in 10.0 mi SSE 8.1 mph - N/A   Clear
7:55 PM 81.5 °F 86.5 °F 73.0 °F 75% 29.88 in 10.0 mi SSE 8.1 mph - N/A   Clear
8:15 PM 80.2 °F 84.6 °F 73.0 °F 79% 29.88 in 10.0 mi SSE 9.2 mph - N/A   Clear
8:35 PM 79.3 °F - 73.4 °F 82% 29.89 in 10.0 mi SSE 8.1 mph - N/A   Clear
8:55 PM 78.4 °F - 73.4 °F 84% 29.89 in 10.0 mi SSE 8.1 mph - N/A   Clear
9:15 PM 77.9 °F - 73.6 °F 86% 29.89 in 10.0 mi SSE 5.8 mph - N/A   Clear
9:35 PM 77.2 °F - 73.8 °F 89% 29.90 in 10.0 mi SSE 5.8 mph - N/A   Clear
9:55 PM 77.2 °F - 74.1 °F 90% 29.91 in 10.0 mi SSE 4.6 mph - N/A   Scattered Clouds
10:15 PM 76.6 °F - 74.3 °F 92% 29.92 in 10.0 mi SSE 6.9 mph - N/A   Mostly Cloudy
10:35 PM 76.3 °F - 74.5 °F 94% 29.93 in 10.0 mi South 6.9 mph - N/A   Scattered Clouds
10:55 PM 76.1 °F - 74.7 °F 95% 29.92 in 10.0 mi SSE 6.9 mph - N/A   Scattered Clouds
11:15 PM 75.7 °F - 74.7 °F 96% 29.91 in 7.0 mi SSE 5.8 mph - N/A   Scattered Clouds
11:35 PM 75.4 °F - 74.5 °F 97% 29.91 in 10.0 mi SSE 8.1 mph - N/A   Scattered Clouds
11:55 PM 75.4 °F - 74.7 °F 98% 29.90 in 7.0 mi SSE 5.8 mph - N/A   Mostly Cloudy